Location: Beetenbrück
(52.8113°N, 9.5946°E)
Time: 21:34:21
(UTC+00:00)

Cosmos 2058 - Pass Details

Date: 14 April 2026
Orbit: 523 x 538 km, 82.5° (Epoch: 12 May)

Event Time Altitude Azimuth Distance (km) Brightness Sun altitude
Rises 21:06:24 0° 355° (N) 2,696 7.3 -21.2°
Reaches altitude 10° 21:08:44 10° 5° (N) 1,797 6.1 -21.4°
Enters shadow 21:12:05 32° 63° (ENE) 923 3.8 -21.7°
